Bangor, ME

12:23 PM EDT on October 14, 2019 (GMT -0400)
Bangor International

Weather History for KBGR - August, 2019

Change the Weather History Date:

Tuesday, August 6, 2019

  Actual Average Record
Temperature  
Mean Temperature 69 °F 68 °F  
Max Temperature 81 °F 80 °F 97 °F (1938)
Min Temperature 56 °F 58 °F 43 °F (1942)
Degree Days  
Heating Degree Days 0 1  
Month to date heating degree days 0 6  
Since 1 June heating degree days 90 136  
Since 1 July heating degree days 0 29  
Cooling Degree Days 4 4  
Month to date cooling degree days 24 24  
Year to date cooling degree days 250 214  
Since 1 June cooling degree days 250 208  
Growing Degree Days 19 (Base 50)    
Moisture  
Dew Point 57 °F    
Average Humidity 68    
Maximum Humidity 93    
Minimum Humidity 43    
Precipitation  
Precipitation T in 0.10 in 0.52 in (2016)
Month to date precipitation T 0.65  
Year to date precipitation 28.67 23.92  
Snow  
Snow 0.00 in 0.00 in 0.00 in (2002)
Month to date snowfall 0.0 0.0  
Since 1 June snowfall 0.0 0.0  
Since 1 July snowfall 0.0 0.0  
Snow Depth 0.00 in    
Sea Level Pressure  
Sea Level Pressure 29.90 in    
Wind  
Wind Speed 8 mph (South)    
Max Wind Speed 22 mph    
Max Gust Speed 27 mph    
Visibility 10 miles    
Events      
T = Trace of Precipitation, MM = Missing Value Source: NWS Daily Summary

Daily Weather History Graph

Daily Weather History Graph

Search for Another Location

Airport or City:

Astronomy

Aug. 06, 2019 Rise Set
Actual Time 5:26 AM EDT 7:55 PM EDT
Civil Twilight 4:53 AM EDT 8:27 PM EDT
Nautical Twilight 4:12 AM EDT 9:08 PM EDT
Astronomical Twilight 3:25 AM EDT 9:55 PM EDT
Moon 12:03 PM EDT (8/6) 11:20 PM EDT (8/6)
Length of Visible Light 15h 34m
Length of Day
14h 28m
Waxing Crescent, 38% of the Moon is Illuminated
Aug 6
Waxing Crescent
Aug 7
First Quarter
Aug 15
Full
Aug 23
Last Quarter
Aug 30
New

Hourly Weather History & Observations

Time (EDT) Temp. Heat Index Dew Point Humidity Pressure Visibility Wind Dir Wind Speed Gust Speed Precip Events Conditions
12:53 AM 63.0 °F - 55.0 °F 75% 29.94 in 10.0 mi SSW 5.8 mph - N/A   Clear
1:53 AM 60.1 °F - 55.0 °F 83% 29.94 in 10.0 mi South 3.5 mph - N/A   Clear
2:53 AM 61.0 °F - 55.0 °F 81% 29.92 in 10.0 mi South 5.8 mph - N/A   Clear
3:53 AM 60.1 °F - 55.0 °F 83% 29.93 in 10.0 mi South 3.5 mph - N/A   Clear
4:53 AM 59.0 °F - 55.9 °F 90% 29.94 in 10.0 mi South 4.6 mph - N/A   Partly Cloudy
5:53 AM 57.9 °F - 55.9 °F 93% 29.94 in 10.0 mi SSW 3.5 mph - N/A   Scattered Clouds
6:53 AM 62.1 °F - 59.0 °F 90% 29.94 in 10.0 mi SSW 4.6 mph - N/A   Scattered Clouds
7:21 AM 63.0 °F - 60.1 °F 90% 29.95 in 10.0 mi South 5.8 mph - N/A   Scattered Clouds
7:53 AM 64.9 °F - 61.0 °F 87% 29.94 in 10.0 mi SSW 6.9 mph - N/A   Scattered Clouds
8:53 AM 70.0 °F - 62.1 °F 76% 29.93 in 10.0 mi SSW 8.1 mph - N/A   Partly Cloudy
9:53 AM 72.0 °F - 63.0 °F 73% 29.94 in 10.0 mi South 9.2 mph - N/A   Clear
10:53 AM 75.0 °F - 63.0 °F 66% 29.93 in 10.0 mi South 10.4 mph - N/A   Partly Cloudy
11:53 AM 78.1 °F - 62.1 °F 58% 29.91 in 10.0 mi South 12.7 mph 19.6 mph N/A   Partly Cloudy
12:53 PM 80.1 °F 81.1 °F 61.0 °F 52% 29.89 in 10.0 mi South 16.1 mph 21.9 mph N/A   Scattered Clouds
1:53 PM 81.0 °F 81.3 °F 59.0 °F 47% 29.87 in 10.0 mi SSE 17.3 mph - N/A   Partly Cloudy
2:53 PM 80.1 °F 80.6 °F 57.9 °F 47% 29.86 in 10.0 mi SSE 16.1 mph - N/A   Partly Cloudy
3:53 PM 79.0 °F - 55.9 °F 45% 29.85 in 10.0 mi South 16.1 mph - N/A   Partly Cloudy
4:53 PM 77.0 °F - 54.0 °F 45% 29.86 in 10.0 mi South 18.4 mph 25.3 mph N/A   Partly Cloudy
5:53 PM 73.9 °F - 52.0 °F 46% 29.86 in 10.0 mi South 13.8 mph - N/A   Scattered Clouds
6:53 PM 71.1 °F - 53.1 °F 53% 29.86 in 10.0 mi South 13.8 mph - N/A   Mostly Cloudy
7:53 PM 68.0 °F - 54.0 °F 61% 29.86 in 10.0 mi SSE 9.2 mph - N/A   Scattered Clouds
8:53 PM 66.0 °F - 51.1 °F 59% 29.88 in 10.0 mi South 6.9 mph - N/A   Partly Cloudy
9:53 PM 64.0 °F - 55.0 °F 73% 29.88 in 10.0 mi SSE 6.9 mph - N/A   Partly Cloudy
10:20 PM 64.0 °F - 55.9 °F 75% 29.89 in 10.0 mi South 4.6 mph - N/A   Mostly Cloudy
10:53 PM 64.0 °F - 55.9 °F 75% 29.88 in 10.0 mi South 4.6 mph - N/A   Mostly Cloudy
11:53 PM 64.0 °F - 57.9 °F 80% 29.87 in 10.0 mi SSE 5.8 mph - N/A   Mostly Cloudy